KLM342 LIRN-LHBP

Flight info

Callsign KLM342
Flight time N/A
Altitude 37000
Route BEDPI DCT MOLUX DCT XOLTA DCT OKLAX DCT KOPRY DCT ULZAK
Aircraft B738/M-SDE2E3FGHIR/S

Departure

Time 2026-04-27 17:16
Airport Naples International Airport (LIRN)

Arrival

Time N/A
Airport Budapest Liszt Ferenc International Airport (LHBP)
Time Latitude Longitude Altitude Speed Heading
2026-04-27 17:07 40.88989 14.30257 305 ft 3 kts 52°
2026-04-27 17:07 40.88997 14.30272 305 ft 1 kts 52°
2026-04-27 17:08 40.88998 14.30273 305 ft 0 kts 52°
2026-04-27 17:09 40.88999 14.30275 305 ft 2 kts 52°
2026-04-27 17:10 40.89029 14.30323 305 ft 11 kts 51°
2026-04-27 17:10 40.89087 14.30418 305 ft 13 kts 44°
2026-04-27 17:10 40.89141 14.30439 305 ft 5 kts 358°
2026-04-27 17:10 40.89144 14.30439 305 ft 0 kts 356°
2026-04-27 17:11 40.89145 14.30439 305 ft 0 kts 356°
2026-04-27 17:14 40.89146 14.30439 305 ft 0 kts 356°
2026-04-27 17:14 40.89158 14.30437 305 ft 5 kts 351°
2026-04-27 17:14 40.89211 14.30385 305 ft 12 kts 260°
2026-04-27 17:14 40.89171 14.30290 305 ft 12 kts 236°
2026-04-27 17:15 40.89121 14.30190 305 ft 16 kts 237°
2026-04-27 17:15 40.88942 14.29812 306 ft 88 kts 238°
2026-04-27 17:15 40.88487 14.28829 306 ft 161 kts 239°
2026-04-27 17:15 40.87851 14.27416 754 ft 184 kts 238°
2026-04-27 17:16 40.87215 14.26018 1602 ft 173 kts 235°
2026-04-27 17:16 40.86257 14.25100 2151 ft 171 kts 198°
2026-04-27 17:16 40.85123 14.25047 2801 ft 157 kts 178°
2026-04-27 17:16 40.84073 14.25120 3358 ft 149 kts 178°
2026-04-27 17:17 40.83023 14.25191 3757 ft 157 kts 177°
2026-04-27 17:17 40.81864 14.25275 3926 ft 175 kts 177°
2026-04-27 17:17 40.80594 14.25359 4201 ft 191 kts 177°
2026-04-27 17:18 40.77691 14.25549 4683 ft 227 kts 177°
2026-04-27 17:18 40.76062 14.25654 4927 ft 239 kts 177°
2026-04-27 17:18 40.74396 14.25762 5392 ft 242 kts 178°
2026-04-27 17:18 40.72688 14.25880 5968 ft 247 kts 177°
2026-04-27 17:19 40.70961 14.26051 6506 ft 251 kts 170°
2026-04-27 17:19 40.69387 14.27034 7016 ft 253 kts 142°
2026-04-27 17:19 40.68350 14.28907 7618 ft 257 kts 114°
2026-04-27 17:19 40.68090 14.31229 8219 ft 261 kts 86°
2026-04-27 17:20 40.68559 14.33537 8871 ft 264 kts 66°
2026-04-27 17:20 40.69599 14.35491 9521 ft 265 kts 50°
2026-04-27 17:20 40.70794 14.37367 10156 ft 269 kts 53°
2026-04-27 17:20 40.71798 14.39482 10779 ft 275 kts 60°
2026-04-27 17:21 40.72712 14.41735 11386 ft 282 kts 57°
2026-04-27 17:21 40.74053 14.43637 11995 ft 286 kts 38°
2026-04-27 17:21 40.75743 14.45059 12649 ft 291 kts 27°
2026-04-27 17:21 40.77578 14.46285 13287 ft 300 kts 25°
2026-04-27 17:22 40.79474 14.47575 13802 ft 314 kts 26°
2026-04-27 17:22 40.81457 14.48960 14284 ft 330 kts 26°
2026-04-27 17:22 40.83536 14.50419 14767 ft 347 kts 26°
2026-04-27 17:22 40.85684 14.51932 15228 ft 363 kts 26°
2026-04-27 17:23 40.87965 14.53540 15708 ft 377 kts 26°
2026-04-27 17:23 40.90308 14.55193 16170 ft 385 kts 26°
2026-04-27 17:23 40.92697 14.56879 16633 ft 391 kts 26°
2026-04-27 17:23 40.95103 14.58581 17080 ft 393 kts 26°
2026-04-27 17:24 40.97524 14.60294 17529 ft 395 kts 26°
2026-04-27 17:24 40.99953 14.62013 17976 ft 397 kts 26°
2026-04-27 17:24 41.02371 14.63727 18418 ft 400 kts 26°
2026-04-27 17:24 41.04841 14.65479 18867 ft 402 kts 26°
2026-04-27 17:25 41.07347 14.67154 19293 ft 405 kts 21°
2026-04-27 17:25 41.09961 14.68560 19776 ft 407 kts 20°
2026-04-27 17:25 41.12585 14.69994 20225 ft 410 kts 21°
2026-04-27 17:25 41.15222 14.71467 20671 ft 412 kts 21°
2026-04-27 17:26 41.17872 14.72949 21117 ft 415 kts 21°
2026-04-27 17:26 41.20539 14.74442 21565 ft 417 kts 21°
2026-04-27 17:26 41.23226 14.75949 22009 ft 420 kts 21°
2026-04-27 17:26 41.25914 14.77498 22448 ft 423 kts 23°
2026-04-27 17:27 41.28554 14.79265 22906 ft 426 kts 25°
2026-04-27 17:27 41.31216 14.81053 23352 ft 430 kts 24°
2026-04-27 17:27 41.33906 14.82824 23800 ft 432 kts 24°
2026-04-27 17:27 41.36579 14.84585 24105 ft 435 kts 24°
2026-04-27 17:28 41.39298 14.86377 24367 ft 436 kts 24°
2026-04-27 17:28 41.42024 14.88174 24645 ft 438 kts 24°
2026-04-27 17:28 41.47509 14.91798 25192 ft 441 kts 24°
2026-04-27 17:29 41.50269 14.93624 25466 ft 443 kts 24°
2026-04-27 17:29 41.53037 14.95457 25739 ft 445 kts 24°
2026-04-27 17:29 41.55815 14.97298 26015 ft 446 kts 24°
2026-04-27 17:29 41.58600 14.99146 26287 ft 448 kts 24°
2026-04-27 17:30 41.61363 15.00980 26561 ft 449 kts 24°
2026-04-27 17:30 41.66992 15.04724 27113 ft 454 kts 24°
2026-04-27 17:30 41.69824 15.06611 27388 ft 457 kts 24°
2026-04-27 17:31 41.72681 15.08515 27656 ft 456 kts 24°
2026-04-27 17:31 41.75525 15.10413 27927 ft 456 kts 24°
2026-04-27 17:31 41.78359 15.12307 28194 ft 455 kts 23°
2026-04-27 17:31 41.81191 15.14201 28453 ft 454 kts 24°
2026-04-27 17:32 41.84019 15.16093 28720 ft 454 kts 23°
2026-04-27 17:32 41.89623 15.19851 29243 ft 453 kts 23°
2026-04-27 17:32 41.92445 15.21745 29511 ft 452 kts 23°
2026-04-27 17:33 41.95257 15.23634 29773 ft 452 kts 23°
2026-04-27 17:33 41.98069 15.25526 30045 ft 451 kts 23°
2026-04-27 17:33 42.00874 15.27415 30307 ft 450 kts 23°
2026-04-27 17:33 42.03666 15.29297 30574 ft 447 kts 23°
2026-04-27 17:34 42.06444 15.31171 30841 ft 446 kts 23°
2026-04-27 17:34 42.09217 15.33045 31105 ft 446 kts 23°
2026-04-27 17:34 42.11983 15.34914 31372 ft 444 kts 23°
2026-04-27 17:34 42.14751 15.36787 31635 ft 444 kts 23°
2026-04-27 17:35 42.17513 15.38658 31903 ft 443 kts 23°
2026-04-27 17:35 42.20271 15.40529 32159 ft 443 kts 23°
2026-04-27 17:35 42.23022 15.42396 32425 ft 443 kts 23°
2026-04-27 17:35 42.25739 15.44241 32685 ft 442 kts 23°
2026-04-27 17:36 42.28493 15.46114 32951 ft 441 kts 23°
2026-04-27 17:36 42.31240 15.47984 33217 ft 441 kts 23°
2026-04-27 17:36 42.33979 15.49850 33482 ft 440 kts 23°
2026-04-27 17:36 42.36711 15.51713 33749 ft 439 kts 23°
2026-04-27 17:37 42.38520 15.52948 33924 ft 438 kts 23°
2026-04-27 17:37 42.42134 15.55417 34278 ft 438 kts 23°
2026-04-27 17:37 42.44859 15.57281 34541 ft 438 kts 23°
2026-04-27 17:37 42.46696 15.58539 34721 ft 438 kts 23°
2026-04-27 17:38 42.49378 15.60376 34983 ft 437 kts 23°
2026-04-27 17:38 42.52095 15.62239 35247 ft 437 kts 23°
2026-04-27 17:38 42.54810 15.64104 35514 ft 437 kts 23°
2026-04-27 17:38 42.57524 15.65968 35775 ft 437 kts 23°
2026-04-27 17:39 42.60237 15.67834 36033 ft 437 kts 23°
2026-04-27 17:39 42.62948 15.69701 36302 ft 436 kts 24°
2026-04-27 17:39 42.65659 15.71569 36567 ft 436 kts 24°
2026-04-27 17:39 42.68365 15.73434 36830 ft 435 kts 23°
2026-04-27 17:40 42.71160 15.74969 37042 ft 431 kts 13°
2026-04-27 17:40 42.77024 15.76497 37081 ft 426 kts
2026-04-27 17:41 42.82850 15.77933 37088 ft 429 kts
2026-04-27 17:41 42.88793 15.79415 37081 ft 436 kts
2026-04-27 17:42 42.94721 15.80897 37082 ft 434 kts
2026-04-27 17:42 43.00674 15.82388 37083 ft 434 kts
2026-04-27 17:43 43.06614 15.83878 37081 ft 433 kts
2026-04-27 17:43 43.12549 15.85370 37082 ft 434 kts
2026-04-27 17:44 43.18445 15.86855 37083 ft 433 kts
2026-04-27 17:44 43.24381 15.88354 37082 ft 432 kts
2026-04-27 17:45 43.30293 15.89849 37082 ft 432 kts
2026-04-27 17:45 43.36204 15.91347 37081 ft 431 kts
2026-04-27 17:46 43.42070 15.92836 37082 ft 431 kts
2026-04-27 17:46 43.47964 15.94336 37082 ft 430 kts
2026-04-27 17:47 43.53866 15.95840 37082 ft 430 kts
2026-04-27 17:47 43.59707 15.97332 37083 ft 430 kts
2026-04-27 17:48 43.65586 15.98836 37083 ft 428 kts
2026-04-27 17:48 43.71456 16.00342 37083 ft 428 kts
2026-04-27 17:49 43.77324 16.01850 37084 ft 428 kts
2026-04-27 17:49 43.83155 16.03351 37085 ft 428 kts
2026-04-27 17:50 43.89000 16.05016 37084 ft 429 kts 13°
2026-04-27 17:50 43.97643 16.08332 37085 ft 430 kts 13°
2026-04-27 17:51 44.03415 16.10487 37086 ft 429 kts 13°
2026-04-27 17:51 44.09157 16.12635 37088 ft 429 kts 13°
2026-04-27 17:52 44.14933 16.14800 37092 ft 429 kts 13°
2026-04-27 17:52 44.20707 16.16968 37094 ft 429 kts 13°
2026-04-27 17:53 44.26487 16.19143 37095 ft 429 kts 13°
2026-04-27 17:53 44.32256 16.21319 37098 ft 430 kts 13°
2026-04-27 17:54 44.37997 16.23488 37102 ft 430 kts 13°
2026-04-27 17:54 44.43771 16.25674 37102 ft 429 kts 13°
2026-04-27 17:55 44.49540 16.27862 37105 ft 429 kts 13°
2026-04-27 17:55 44.55272 16.30042 37109 ft 429 kts 13°
2026-04-27 17:56 44.61040 16.32240 37113 ft 429 kts 13°
2026-04-27 17:56 44.66816 16.34444 37116 ft 429 kts 13°
2026-04-27 17:57 44.72582 16.36649 37120 ft 429 kts 12°
2026-04-27 17:57 44.78311 16.38846 37122 ft 429 kts 12°
2026-04-27 17:58 44.84074 16.41060 37122 ft 428 kts 12°
2026-04-27 17:58 44.89831 16.43276 37126 ft 429 kts 12°
2026-04-27 17:59 44.95591 16.45498 37130 ft 429 kts 12°
2026-04-27 17:59 45.01317 16.47711 37136 ft 429 kts 12°
2026-04-27 18:00 45.07087 16.49945 37137 ft 428 kts 12°
2026-04-27 18:00 45.12795 16.52161 37138 ft 428 kts 12°
2026-04-27 18:01 45.18555 16.54402 37139 ft 429 kts 12°
2026-04-27 18:01 45.24322 16.56649 37139 ft 429 kts 12°
2026-04-27 18:02 45.30083 16.58899 37141 ft 428 kts 12°
2026-04-27 18:02 45.35790 16.61133 37138 ft 428 kts 12°